Weather in Pytalovo

Russia / Pskov Oblast     57°03′50″N   27°55′26″E
temp.,
°C
wind,
m/s
gust,
m/s
humid.,
%
clouds,
%
prec.,
mm/h
press.,
hPa
HPBL,
m
26 october, tue
tue2600:00+4ssw51474100 0.0 1020488
03:00+4ssw51375100 0.0 1019434
06:00+3ssw51278100 0.0 1018376
09:00+3ssw41179100 0.0 1017366
12:00+6sw51066100 0.0 1016483
15:00+8sw51064100 0.0 1014588
18:00+5ssw41175100 0.0 1014352
21:00+5sw51277100 0.0 1013471
27 october, wed
wed2700:00+6sw51477100 0.0 1011543
03:00+6sw61387100 0.4 1010623
06:00+8wsw61293100 0.1 1010780
09:00+8w61076100 0.1 1011922
12:00+8wsw61077100 0.0 10121255
15:00+9wsw51073100 0.1 10121090
18:00+9sw51182100 0.0 1011636
21:00+9ssw61393100 2.4 1008873
28 october, thu
thu2800:00+10wsw71592100 2.3 1007987
03:00+11wsw71491100 2.6 1006941
06:00+12w7138898 0.4 1008931
09:00+10wnw614835 0.4 1011840
12:00+9nw61081100 0.1 10151091
15:00+10nw487571 0.1 1018876
18:00+6nne228936 0.0 102139
21:00+5e0187100 0.0 102310
29 october, fri
fri2900:00+6s2386100 0.0 102463
03:00+5s3890100 0.0 1024176
06:00+6s4108949 0.0 1024266
09:00+8ssw4109364 0.0 1024262
12:00+11sw51087100 0.0 1025564
15:00+13ssw4108045 0.0 1024734
18:00+11s4119383 0.0 1024316
21:00+10s5149314 0.0 1023420
30 october, sat
sat3000:00+10ssw6158979 0.0 1023452
03:00+9s51489100 0.0 1022436
06:00+8s51391100 0.0 1021405
09:00+8s5149094 0.0 1021430
12:00+11s6147757 0.0 1019604
15:00+13ssw5126931 0.0 1018772
18:00+11ssw5127870 0.0 1018474
21:00+10ssw51375100 0.0 1018569